Tracking 26321 objects as of 27-Nov-2022
HD Live streaming from Space Station
objects crossing your sky now

COSMOS 1408 DEB

Track COSMOS 1408 DEB now!
10-day predictions


NORAD ID: 51523
Int'l Code: 1982-092BKW
Perigee: 405.0 km
Apogee: 414.4 km
Inclination: 82.6 °
Period: 92.6 minutes
Semi major axis: 6780 km
RCS: Unknown
Launch date: September 16, 1982
Source: Commonwealth of Independent States (former USSR) (CIS)
Launch site: PLESETSK MISSILE AND SPACE COMPLEX (PKMTR)

Note: This is SATELLITE DEBRIS
aabbcc
Your satellite tracking list
Your tracking list is empty




NASA's NSSDC Master Catalog

Two Line Element Set (TLE):
1 51523U 82092BKY 22331.40980038  .00087228  00000-0  12950-2 0  9996
2 51523  82.5681 102.6557 0006946 188.3290 171.7850 15.54855122 46254
Source of the keplerian elements: AFSPC